Flag for Macedonia, Republic of Weather past 2 weeks in Kumanovo, Macedonia, Republic of

Now
59 °F

Scattered clouds.


Feels Like: 58 °F
Forecast: 40 / 60 °F
Wind: 8 mph from Northwest

Location: Skopje-Petrovec

Current Time: Apr 21, 2015 at 2:14:48 PM

Latest Report: Apr 21, 2015 at 1:30 PM


Visibility: N/A

Pressure: 30.07 "Hg

Humidity: 29%

Dew point: 27 °F

Location of KumanovoLocation

Historic Weather in Kumanovo — Graph

°F

Kumanovo temperature yesterday

Maximum temperature yesterday: 64 °F (at 5:00 PM)
Minimum temperature yesterday: 39 °F (at 12:00 AM)
Average temperature yesterday: 51 °F

Past Weeks' High & Low Weather Summary

 TemperatureHumidityPressure
High77 °F (Apr 16, 4:30 PM)87% (Apr 6, 8:00 PM)30.45 "Hg (Apr 6, 8:00 PM)
Low34 °F (Apr 11, 3:30 AM)16% (Apr 11, 4:00 PM)29.77 "Hg (Apr 18, 3:30 PM)
Average52 °F57%30.14 "Hg
* Reported Apr 6 1:00 PM — Apr 21 1:00 PM, Kumanovo, Weather by CustomWeather, © 2015

Note: Actual official high and low records may vary slightly from our data, if they occured in-between our weather recording intervals... More about our weather records

Advertising

Kumanovo weather history for previous 24 hours

 ConditionsComfort  
Time TempWeatherWind HumidityBarometerVisibility
1:00 PM
Tue, Apr 21
59 °FScattered clouds.12 mph29%30.07 "HgN/A
12:30 PM63 °FScattered clouds.18 mph24%30.07 "HgN/A
12:00 PM59 °FScattered clouds.15 mph29%30.09 "HgN/A
11:30 AM59 °FScattered clouds.18 mph29%30.09 "HgN/A
11:00 AM59 °FScattered clouds.21 mph27%30.07 "HgN/A
10:30 AM57 °FScattered clouds.23 mph31%30.07 "HgN/A
10:00 AM57 °FScattered clouds.22 mph31%30.09 "HgN/A
9:30 AM57 °FScattered clouds.21 mph29%30.07 "HgN/A
9:00 AM55 °FScattered clouds.20 mph33%30.07 "HgN/A
8:30 AM55 °FScattered clouds.20 mph36%30.07 "HgN/A
8:00 AM54 °FScattered clouds.17 mph41%30.07 "HgN/A
7:30 AM54 °FScattered clouds.13 mph51%30.04 "HgN/A
7:00 AM54 °FBroken clouds.20 mph51%30.04 "HgN/A
6:30 AM54 °FPartly cloudy.17 mph47%30.01 "HgN/A
6:00 AM54 °FPartly cloudy.21 mph47%29.98 "HgN/A
5:30 AM52 °FPassing clouds.8 mph54%29.98 "HgN/A
5:00 AM52 °FPassing clouds.6 mph54%29.98 "HgN/A
4:30 AM54 °FPassing clouds.8 mph47%29.98 "HgN/A
4:00 AM52 °FPassing clouds.5 mph50%29.98 "HgN/A
3:30 AM54 °FPassing clouds.6 mph44%29.98 "HgN/A
3:00 AM52 °FPassing clouds.7 mph50%29.98 "HgN/A
2:30 AM52 °FPassing clouds.7 mph50%29.98 "HgN/A
1:30 AM50 °FPassing clouds.6 mph54%30.01 "HgN/A
12:30 AM52 °FPassing clouds.3 mph47%30.01 "HgN/A
12:00 AM52 °FPassing clouds.3 mph47%30.01 "HgN/A
11:00 PM
Mon, Apr 20
52 °FClear.3 mph44%30.01 "Hg10 mi
10:30 PM52 °FClear.8 mph47%29.98 "Hg10 mi
10:00 PM54 °FClear.13 mph41%29.98 "Hg10 mi
9:30 PM52 °FClear.12 mph47%29.95 "Hg10 mi
9:00 PM52 °FClear.12 mph47%29.95 "Hg10 mi
8:30 PM55 °FClear.14 mph38%29.95 "Hg10 mi
8:00 PM61 °FSunny.15 mph29%29.92 "Hg10 mi
7:30 PM59 °FSunny.9 mph31%29.92 "Hg10 mi
7:00 PM59 °FSunny.9 mph34%29.89 "Hg10 mi
6:30 PM61 °FSunny.9 mph31%29.89 "Hg10 mi
6:00 PM63 °FSunny.10 mph27%29.89 "Hg10 mi
5:30 PM63 °FSunny.7 mph30%29.89 "Hg10 mi
5:00 PM64 °FPassing clouds.9 mph28%29.92 "HgN/A
4:30 PM63 °FSunny.9 mph27%29.92 "Hg10 mi
4:00 PM63 °FPassing clouds.7 mph27%29.92 "HgN/A
3:30 PM63 °FSunny.3 mph27%29.92 "Hg10 mi
3:00 PM61 °FSunny.3 mph31%29.95 "Hg10 mi
2:30 PM61 °FSunny.2 mph29%29.95 "Hg10 mi
2:00 PM59 °FSunny.3 mph31%29.98 "Hg10 mi
Weather by CustomWeather, © 2015

See weather overviewHow to use our weather pages